Fountain, MN

3:51 PM CST on February 07, 2016 (GMT -0600)
Preston

Weather History for KFKA - November, 2012

Change the Weather History Date:

Tuesday, November 6, 2012

  Actual Average (KRST) Record (KRST)
Temperature  
Mean Temperature 42 °F 39 °F  
Max Temperature 46 °F 48 °F 73 °F (1893)
Min Temperature 37 °F 31 °F -3 °F (1991)
Degree Days  
Heating Degree Days 24 26  
Month to date heating degree days 147  
Since 1 July heating degree days 883  
Cooling Degree Days 0 0  
Month to date cooling degree days 0  
Year to date cooling degree days 585  
Moisture  
Dew Point 35 °F    
Average Humidity 79    
Maximum Humidity 87    
Minimum Humidity 64    
Precipitation  
Precipitation 0.12 in 0.07 in 1.12 in (2000)
Month to date precipitation 0.40  
Year to date precipitation 30.28  
Snow  
Snow 0.00 in 0.10 in 3.50 in (1911)
Month to date snowfall 0.6  
Since 1 July snowfall 1.4  
Snow Depth -    
Sea Level Pressure  
Sea Level Pressure 29.86 in    
Wind  
Wind Speed 11 mph (West)    
Max Wind Speed 20 mph    
Max Gust Speed 24 mph    
Visibility 7 miles    
Events Rain    
T = Trace of Precipitation, MM = Missing Value Source: NWS Daily Summary

Daily Weather History Graph

Daily Weather History Graph

Search for Another Location

Airport or City:

Trip Planner

Search our weather history database for the weather conditions in past years. The results will help you decide how hot, cold, wet, or windy it might be!

Date:

Astronomy

Nov. 06, 2012 Rise Set
Actual Time 6:51 AM CST 4:52 PM CST
Civil Twilight 6:21 AM CST 5:22 PM CST
Nautical Twilight 5:47 AM CST 5:56 PM CST
Astronomical Twilight 5:13 AM CST 6:30 PM CST
Moon 11:34 PM CST (11/6) 12:42 PM CST (11/6)
Length of Visible Light 11h 01m
Length of Day
10h 00m
Waning Gibbous, 53% of the Moon is Illuminated
Nov 6
Waning Gibbous
Nov 6
Last Quarter
Nov 13
New
Nov 20
First Quarter
Nov 28
Full

Hourly Weather History & Observations

Time (CST) Temp. Windchill Dew Point Humidity Pressure Visibility Wind Dir Wind Speed Gust Speed Precip Events Conditions
12:09 AM 37.8 °F 30.2 °F 29.3 °F 72% 29.99 in 10.0 mi South 11.5 mph - N/A   Clear
12:30 AM 37.6 °F 30.5 °F 29.1 °F 72% 29.99 in 10.0 mi South 10.4 mph - N/A   Clear
12:50 AM 37.6 °F 30.5 °F 29.1 °F 72% 29.98 in 10.0 mi South 10.4 mph - N/A   Clear
1:10 AM 37.4 °F 33.8 °F 29.3 °F 73% 29.99 in 10.0 mi SW 4.6 mph - N/A   Clear
1:30 AM 38.3 °F 33.2 °F 30.0 °F 72% 29.99 in 10.0 mi SSW 6.9 mph - N/A   Clear
1:50 AM 38.8 °F 33.8 °F 30.6 °F 72% 29.99 in 10.0 mi SSW 6.9 mph - N/A   Mostly Cloudy
2:09 AM 39.0 °F 32.3 °F 30.7 °F 72% 29.97 in 10.0 mi South 10.4 mph - N/A   Mostly Cloudy
2:30 AM 38.8 °F 32.6 °F 31.1 °F 74% 29.95 in 10.0 mi South 9.2 mph - N/A   Scattered Clouds
2:50 AM 39.4 °F 32.3 °F 31.1 °F 72% 29.94 in 10.0 mi SSW 11.5 mph 16.1 mph N/A   Scattered Clouds
3:10 AM 39.7 °F 32.3 °F 31.6 °F 73% 29.93 in 7.0 mi SSW 12.7 mph - N/A   Mostly Cloudy
3:30 AM 40.1 °F 32.7 °F 32.0 °F 73% 29.92 in 7.0 mi SSW 12.7 mph - N/A   Overcast
3:50 AM 40.5 °F 33.6 °F 32.0 °F 72% 29.92 in 7.0 mi SSW 11.5 mph - N/A Rain Light Rain
4:10 AM 39.9 °F 32.5 °F 32.9 °F 76% 29.90 in 4.0 mi South 12.7 mph 19.6 mph 0.01 in Rain Rain
4:30 AM 39.4 °F 31.1 °F 33.4 °F 79% 29.89 in 5.0 mi SSW 15.0 mph - 0.01 in Rain Light Rain
4:50 AM 39.4 °F 31.8 °F 33.8 °F 80% 29.89 in 3.0 mi SSW 12.7 mph 21.9 mph 0.02 in Rain Light Rain
5:10 AM 39.2 °F 30.8 °F 34.3 °F 83% 29.88 in 3.0 mi SSW 15.0 mph 19.6 mph N/A   Light Drizzle
5:30 AM 39.2 °F 30.8 °F 34.7 °F 84% 29.86 in 3.0 mi South 15.0 mph - 0.01 in   Light Drizzle
6:10 AM 39.6 °F 31.3 °F 35.1 °F 84% 29.84 in 4.0 mi SSW 15.0 mph 21.9 mph N/A Rain Rain
6:30 AM 39.2 °F 30.2 °F 34.7 °F 84% 29.84 in 4.0 mi SSW 17.3 mph 24.2 mph 0.02 in Rain Light Rain
6:50 AM 39.0 °F 31.8 °F 34.5 °F 84% 29.85 in 5.0 mi SSW 11.5 mph 20.7 mph 0.02 in   Overcast
7:09 AM 38.8 °F 30.8 °F 34.7 °F 85% 29.84 in 2.5 mi SSW 13.8 mph - N/A Rain Light Rain
7:30 AM 39.2 °F 32.0 °F 34.9 °F 84% 29.84 in 3.0 mi SSW 11.5 mph - 0.01 in Rain Light Rain
7:50 AM 39.4 °F 31.1 °F 35.1 °F 84% 29.84 in 4.0 mi SSW 15.0 mph 18.4 mph 0.02 in Rain Light Rain
8:10 AM 39.4 °F 31.4 °F 35.1 °F 84% 29.83 in 3.0 mi South 13.8 mph 18.4 mph N/A   Light Drizzle
8:30 AM 39.7 °F 31.9 °F 35.6 °F 85% 29.82 in 3.0 mi South 13.8 mph - 0.01 in Rain Light Rain
8:50 AM 40.1 °F 33.6 °F 36.0 °F 85% 29.82 in 1.2 mi SSW 10.4 mph - 0.01 in   Overcast
9:10 AM 40.6 °F 33.8 °F 36.5 °F 85% 29.82 in 1.2 mi SSW 11.5 mph 19.6 mph N/A   Overcast
9:29 AM 41.0 °F 33.9 °F 37.0 °F 86% 29.81 in 1.0 mi SSW 12.7 mph 18.4 mph N/A   Overcast
9:50 AM 41.5 °F 35.0 °F 37.6 °F 86% 29.81 in 1.2 mi SSW 11.5 mph - N/A   Overcast
10:10 AM 41.9 °F 36.9 °F 37.9 °F 86% 29.81 in 1.0 mi SW 8.1 mph - N/A   Overcast
10:30 AM 42.3 °F 37.3 °F 38.5 °F 86% 29.80 in 1.2 mi SW 8.1 mph - 0.01 in   Overcast
10:50 AM 43.3 °F 38.6 °F 39.6 °F 87% 29.80 in 2.5 mi WSW 8.1 mph - 0.01 in   Overcast
11:10 AM 44.8 °F 39.0 °F 41.0 °F 87% 29.80 in 5.0 mi WNW 11.5 mph - N/A   Overcast
11:30 AM 45.1 °F 38.4 °F 39.2 °F 80% 29.79 in 10.0 mi WNW 15.0 mph - N/A   Overcast
11:50 AM 45.5 °F 39.6 °F 37.4 °F 73% 29.79 in 10.0 mi NW 12.7 mph 20.7 mph N/A   Overcast
12:10 PM 45.1 °F 38.8 °F 36.1 °F 71% 29.79 in 10.0 mi NW 13.8 mph 21.9 mph N/A   Overcast
12:30 PM 45.5 °F 39.9 °F 36.7 °F 71% 29.79 in 10.0 mi NW 11.5 mph 18.4 mph N/A   Overcast
12:50 PM 45.5 °F 38.6 °F 35.8 °F 69% 29.79 in 10.0 mi NW 16.1 mph - N/A   Overcast
1:10 PM 44.8 °F 39.0 °F 36.1 °F 72% 29.79 in 10.0 mi WNW 11.5 mph 19.6 mph N/A   Overcast
1:30 PM 44.8 °F 36.9 °F 37.2 °F 75% 29.80 in 10.0 mi WNW 19.6 mph - N/A   Overcast
1:50 PM 45.0 °F 38.2 °F 35.1 °F 68% 29.80 in 10.0 mi NW 15.0 mph 21.9 mph N/A   Overcast
2:10 PM 46.2 °F 39.0 °F 34.5 °F 64% 29.80 in 10.0 mi NW 18.4 mph 24.2 mph N/A   Mostly Cloudy
2:30 PM 45.7 °F 38.6 °F 34.2 °F 64% 29.80 in 10.0 mi NNW 17.3 mph 21.9 mph N/A   Mostly Cloudy
2:50 PM 45.7 °F 39.5 °F 34.0 °F 64% 29.81 in 10.0 mi NNW 13.8 mph 20.7 mph N/A   Overcast
3:10 PM 45.1 °F 39.9 °F 34.2 °F 65% 29.82 in 10.0 mi NW 10.4 mph - N/A   Overcast
3:30 PM 45.3 °F 41.1 °F 34.9 °F 67% 29.82 in 10.0 mi NW 8.1 mph - N/A   Overcast
3:50 PM 44.8 °F 39.9 °F 35.4 °F 70% 29.83 in 7.0 mi WNW 9.2 mph - N/A   Overcast
4:10 PM 43.2 °F 39.0 °F 37.4 °F 80% 29.84 in 2.0 mi NW 6.9 mph - 0.01 in   Drizzle
4:30 PM 42.4 °F 36.5 °F 37.4 °F 82% 29.84 in 5.0 mi NW 10.4 mph 19.6 mph 0.01 in Rain Light Rain
4:50 PM 41.9 °F 37.5 °F 37.0 °F 83% 29.84 in 2.5 mi NW 6.9 mph - 0.02 in Rain Light Rain
5:30 PM 42.1 °F 35.2 °F 37.2 °F 83% 29.85 in 10.0 mi WNW 12.7 mph - N/A   Overcast
5:50 PM 41.9 °F 35.9 °F 36.9 °F 82% 29.85 in 10.0 mi WNW 10.4 mph - N/A Rain Light Rain
6:10 PM 41.9 °F 35.0 °F 36.9 °F 82% 29.86 in 10.0 mi WNW 12.7 mph - N/A Rain Light Rain
6:30 PM 41.7 °F 35.2 °F 36.5 °F 82% 29.86 in 7.0 mi NW 11.5 mph - N/A Rain Light Rain
6:50 PM 41.5 °F 35.9 °F 36.7 °F 83% 29.86 in 5.0 mi NW 9.2 mph - 0.01 in Rain Light Rain
7:10 PM 41.5 °F 35.9 °F 36.9 °F 83% 29.86 in 7.0 mi NW 9.2 mph - N/A   Light Drizzle
7:30 PM 41.4 °F 34.0 °F 36.9 °F 84% 29.86 in 4.0 mi NNW 13.8 mph 18.4 mph N/A   Light Drizzle
7:50 PM 41.0 °F 35.2 °F 36.1 °F 83% 29.86 in 7.0 mi NW 9.2 mph - N/A   Overcast
8:10 PM 40.6 °F 33.8 °F 35.8 °F 83% 29.87 in 10.0 mi NNW 11.5 mph - N/A   Overcast
8:30 PM 41.0 °F 34.3 °F 35.8 °F 82% 29.87 in 7.0 mi NNW 11.5 mph 17.3 mph N/A   Overcast
8:50 PM 40.6 °F 34.3 °F 35.6 °F 82% 29.88 in 10.0 mi NNW 10.4 mph 16.1 mph N/A   Overcast
9:10 PM 40.6 °F 33.0 °F 35.2 °F 81% 29.88 in 10.0 mi NNW 13.8 mph - N/A   Overcast
9:30 PM 40.5 °F 33.2 °F 35.4 °F 82% 29.88 in 4.0 mi North 12.7 mph - N/A   Haze
9:50 PM 40.3 °F 32.2 °F 35.6 °F 83% 29.89 in 4.0 mi NNW 15.0 mph 18.4 mph N/A   Overcast
10:10 PM 40.1 °F 33.6 °F 35.6 °F 84% 29.89 in 5.0 mi North 10.4 mph - N/A   Overcast
10:30 PM 40.1 °F 33.2 °F 35.6 °F 84% 29.89 in 3.0 mi NNW 11.5 mph 17.3 mph N/A   Overcast
10:50 PM 39.7 °F 32.3 °F 35.6 °F 85% 29.90 in 7.0 mi North 12.7 mph 19.6 mph N/A   Overcast
11:10 PM 40.1 °F 32.7 °F 35.6 °F 84% 29.91 in 10.0 mi North 12.7 mph 17.3 mph N/A   Overcast
11:30 PM 40.1 °F 33.6 °F 35.2 °F 83% 29.92 in 10.0 mi North 10.4 mph 17.3 mph N/A   Overcast
11:50 PM 40.1 °F 33.6 °F 35.1 °F 82% 29.92 in 10.0 mi North 10.4 mph 18.4 mph N/A   Overcast